Volver al catálogo

STARLINK-6296

ActivoComunicacionesVLEO
NORAD 56773·PAYLOAD·🇺🇸 United States

Lanzado May 31, 2023 desde Vandenberg Space Force Base

Loading…

Próximos Pases (próximas 24 horas)

TLE

ActualizadoSource: CelesTrak SupGP

Época: Sep 15, 2026, 02:11 UTC

1 56773C 23078G   26258.09145833  .00005353  00000+0  44869-3 0  2581
2 56773  70.0021 187.0729 0003032 271.2836  56.1152 14.98323309    14

Sigue STARLINK-6296 en tiempo real con AllMySat

Download on the App Store